Weather in Lipshani

Russia / Pskov Oblast     56°36′13″N   30°05′40″E
temp.,
°C
wind,
m/s
gust,
m/s
humid.,
%
clouds,
%
prec.,
mm/h
press.,
hPa
HPBL,
m
24 june, thu
thu2400:00+22ssw24788 0.0 101975
03:00+21ssw23840 0.0 101948
06:00+22sse138744 0.0 101890
09:00+25ssw2579100 0.9 1018377
12:00+31ssw2448100 0.0 10171469
15:00+30sw3547100 0.0 10171536
18:00+31ssw47431 0.0 10142046
21:00+24nne1275100 0.0 101546
25 june, fri
fri2500:00+18ene249282 2.8 101666
03:00+19ese2296100 4.3 101532
06:00+21sw1597100 1.7 1014147
09:00+24se2484100 1.7 1013268
12:00+28sw366569 1.9 10131013
15:00+32sw46435 1.9 10122062
18:00+30ssw375176 0.0 1010768
21:00+19wsw2796100 1.9 1012279
26 june, sat
sat2600:00+17ssw2498100 0.0 101186
03:00+16ssw2897100 0.0 1012196
06:00+18sw289899 0.3 1011292
09:00+22ssw238482 0.3 1012571
12:00+25wsw2267100 0.1 1012994
15:00+25wsw347092 0.6 1012926
18:00+26w456270 0.1 10121205
21:00+21wnw268517 0.3 1013174
27 june, sun
sun2700:00+17wnw2696100 0.0 1014132
03:00+16nw239732 0.0 101458
06:00+17nnw1493100 0.0 1015133
09:00+22nnw236798 0.0 1015707
12:00+23nw2258100 0.0 10151125
15:00+23nw1255100 0.0 10151079
18:00+24nne135499 0.0 1014997
21:00+20nw117773 0.0 101438
28 june, mon
mon2800:00+16nw2782100 0.0 1015142
03:00+15nnw268882 0.0 1015125
06:00+16nnw2687100 0.0 1015201
09:00+19nnw3564100 0.0 1015596
12:00+23nnw454968 0.0 10151232
15:00+24nnw4445100 0.0 10141705
18:00+24nnw3449100 0.0 10141723
21:00+19nw387373 0.0 1014211